BLOCK DM-SL R/B, 55507

Orbit data source: Space-Track

BLOCK DM-SL R/B, 55507 is space debris in GEO originally from a launch on Sun, 05 Feb 2023 UTC launched from the Tyuratam Missile And Space Complex (TTMTR). Debris objects in space refer to the collection of defunct objects orbiting the Earth. Examples of debris include non-operational satellites, rocket bodies, and fragments generated from explosions, collisions, or faulty payload assembly.

Not visible in the next 10 days
BLOCK DM-SL R/B details
Identifier
55507, 2023-016B
Orbit
GEO
Last TLE update2 days ago
Origin
Flag of CISVVKO VKS (CIS)
ManufacturerRKKE
MissionSpacecraft
Bus & MotorBLOK DM2, 11D58M
Mass2,440 kg wet, 2,440 kg dry
Launch date (UTC)
2023-02-05 (2 years ago)
Launch vehicleUnknown
Launch site
Tyuratam Missile And Space Complex (TTMTR)
Object type
Payload
Rocket body
Debris
Shape & HBRCyl, 7.1 m
Radar Cross Section26.008 m², Large (>1 m²)

Expand to show TLE details & history

TLE from 2 days ago
0 BLOCK DM-SL R/B
1 55507U 23016B   25045.76375194 -.00000071  00000-0  00000-0 0  9991
2 55507   1.4192  86.4026 0094705 231.0879 128.5921  1.03219273  7645
Epoch: 2025-02-14T18:19Z
Definitive object data (Epoch: 2025-02-14T18:19:48.167Z)
Latitude
Longitude26.98815°
Altitude35,227.003 km
Speed3.086 km/s
True Right ascension05h 47m 50s
True Declination0° 00' 00"
Sunlit
Object was in daylight at TLE epoch
Visualization TLE readout
Latitude-1.24977°
Longitude-33.15228°
Altitude34,836.476 km
Speed3.115 km/s
Apparent Right ascension01h 59m 11s
Apparent Declination-6° 13' 29"
Sunlit
Object is in daylight
Visualization observer readout
Local Sidereal Time15:42:47
Azimuth41.512° NE
Elevation-49.064°
Doppler factor1
Orbital elements
Apogee altitude35,372.815 km
Perigee altitude34,589.429 km
Semi-major axis41,359.259 km
Eccentricity0.0094705
Inclination1.4192°
RAAN86.4026°
Arg. of periapsis231.0879°
True anomaly129.43408°
Mean anomaly128.5921°
Eccentric anomaly129.01371°
Mean motion0.25804 °/min
BSTARUnknown
Orbital period1395.14 mins
Loading historical data...
55507 neighbors
Authenticating...
Loading maneuver chart data...
Loading historical data...
Loading historical data...
Loading historical data...
Loading historical data...
Loading historical data...
Loading historical data...
Loading historical data...
Other satellites on launch #16 in the year 2023 (2023-02-05 UTC)

BLOCK DM-SL R/B Visibility forecast

Observer location: undefined°, undefined

BLOCK DM-SL R/B is not visible in the next 10 days
Span
Click to sort rows by Start time (UTC) header in descending order
Start Az.
Max El. time (UTC)
Max El. Az.
Max El.
End time (UTC)
End Az.
|